STARLINK-5680, 55455

Orbit data source: Space-Track

STARLINK-5680, 55455 is a payload satellite owned by SpaceX/Seattle (US) in LEO that was launched on Thu, 02 Feb 2023 UTC via an FALCON 9 launch vehicle from the Air Force Eastern Test Range (AFETR). Payload-class satellites include a variety of spacecraft equipped with specific instruments for various scientific and technological missions. These include communications satellites like Starlink; space stations such as the ISS; scientific satellites like the Hubble; Earth observation satellites from companies like Planet Labs, Umbra, and HawkEye 360; GPS; miniature CubeSats for education and research; and military/defense satellites.

Loading next visibility...
Identifier
55455, 2023-015G
Orbit
LEO
Country
Flag of USUS
Related business
Manufacturer
SpaceX/Seattle
Mission
Operational Commercial Communications
Bus & Motor
STARLINK, Unknown motor
Mass
305 kg wet, ~290 kg dry
Launch date (UTC)
2023-02-02 (3 years ago)
Launch vehicle
FALCON 9
Launch site
Air Force Eastern Test Range (AFETR)
Object type
Payload
Rocket body
Debris
Shape & HBR
Box + 1 Pan, 10.1 m
Radar Cross Section
13.562 m², Large (>1 m²)

Expand to show TLE details & history
Last TLE update: 10 hours ago

TLE from 10 hours ago
0 STARLINK-5680
1 55455U 23015G   25288.72828653  .00005129  00000-0  39415-3 0  9993
2 55455  43.0037  34.0497 0001413 264.8419  95.2262 15.02564162148947
Epoch: 2025-10-15T17:28Z
TLE epoch observation values (Epoch: 2025-10-15T17:28:43.956Z)
Latitude
-0.00001°
Longitude
107.36834°
Altitude
558.861 km
Speed
7.584 km/s
True Right ascension
02h 16m 11s
True Declination
0° 00' 00"
Sunlit
Object was in full shadow at epoch
Visualization orbit readout
Latitude
Unknown
Longitude
Unknown
Altitude
Unknown
Speed
Unknown
Apparent Right ascension
Unknown
Apparent Declination
Unknown
Sunlit
N/A
Visualization observer readout
Local Sidereal Time
22:01:41
Azimuth
Unknown
Elevation
Unknown
Doppler factor
Unknown
Orbital elements
Apogee altitude
561.897 km
Perigee altitude
559.936 km
Semi-major axis
6,939.053 km
Eccentricity
0.00014
Inclination
43.0037°
RAAN
34.0497°
Arg. of periapsis
264.8419°
True anomaly
95.24232°
Mean anomaly
95.2262°
Eccentric anomaly
95.23426°
Mean motion
3.75485 °/min
Orbital period
95.88 mins
BSTAR
0.00039415
Loading maneuver chart data...
Computing Atmospheric mass density...
Loading historical data...
Loading historical data...
Loading historical data...
Loading historical data...
Loading historical data...
Loading historical data...
Loading historical data...

Documentation

Showing up to 5 results
|